When you browse on this site, cookies collect data to enhance your experience and personalize the content and advertising you see.
Visit our Privacy Policy to learn more. By continuing to use the site, you agree to this use of cookies and data.
  • In Spain
  • List of Countries
  • For 7 days
  • Water Temperature
  • Weather Map
  • Weather Widgets
  • user-avatar
    Login

    Hourly Weather Córdoba

    Today, 17 October, Thursday

    Time Temperature Precipitation Wind Pressure Humidity
    00:00 +14°C° 0 mm 1 mps 725 mmHg 85%
    01:00 +14°C° 0 mm 1 mps 725 mmHg 84%
    02:00 +13°C° 0 mm 1 mps 725 mmHg 82%
    03:00 +13°C° 0 mm 1 mps 724 mmHg 82%
    04:00 +13°C° 0 mm 1 mps 724 mmHg 83%
    05:00 +12°C° 0 mm 0 mps 724 mmHg 83%
    06:00 +14°C° 0 mm 1 mps 724 mmHg 77%
    07:00 +16°C° 0 mm 1 mps 725 mmHg 71%
    08:00 +18°C° 0 mm 1 mps 726 mmHg 65%
    09:00 +20°C° 0 mm 1 mps 725 mmHg 59%
    10:00 +20°C° 0 mm 2 mps 725 mmHg 53%
    11:00 +22°C° 0 mm 3 mps 725 mmHg 48%
    12:00 +24°C° 0 mm 3 mps 725 mmHg 45%
    13:00 +25°C° 0 mm 3 mps 725 mmHg 42%
    14:00 +26°C° 0 mm 2 mps 724 mmHg 39%
    15:00 +25°C° 0 mm 3 mps 724 mmHg 39%
    16:00 +25°C° 0 mm 3 mps 724 mmHg 40%
    17:00 +25°C° 0 mm 3 mps 723 mmHg 40%
    18:00 +24°C° 0 mm 3 mps 724 mmHg 46%
    19:00 +21°C° 0 mm 3 mps 725 mmHg 52%
    20:00 +19°C° 0 mm 3 mps 725 mmHg 58%
    21:00 +19°C° 0 mm 2 mps 726 mmHg 61%
    22:00 +19°C° 0 mm 2 mps 726 mmHg 64%
    23:00 +19°C° 0 mm 1 mps 726 mmHg 67%

    Tomorrow, 18 October, Friday

    Time Temperature Precipitation Wind Pressure Humidity
    00:00 +19°C° 0 mm 1 mps 726 mmHg 69%
    01:00 +18°C° 0 mm 1 mps 726 mmHg 72%
    02:00 +18°C° 0 mm 1 mps 726 mmHg 74%
    03:00 +16°C° 0 mm 1 mps 726 mmHg 77%
    04:00 +16°C° 0 mm 1 mps 726 mmHg 79%
    05:00 +14°C° 0 mm 0 mps 726 mmHg 82%
    06:00 +18°C° 0 mm 1 mps 726 mmHg 75%
    07:00 +19°C° 0 mm 1 mps 727 mmHg 67%
    08:00 +21°C° 0 mm 1 mps 727 mmHg 60%
    09:00 +21°C° 0 mm 2 mps 728 mmHg 51%
    10:00 +24°C° 0 mm 2 mps 728 mmHg 42%
    11:00 +25°C° 0 mm 3 mps 728 mmHg 33%
    12:00 +26°C° 0 mm 3 mps 728 mmHg 30%
    13:00 +27°C° 0 mm 3 mps 727 mmHg 27%
    14:00 +27°C° 0 mm 4 mps 727 mmHg 24%
    15:00 +27°C° 0 mm 4 mps 727 mmHg 25%
    16:00 +26°C° 0 mm 4 mps 726 mmHg 26%
    17:00 +26°C° 0 mm 4 mps 726 mmHg 27%
    18:00 +23°C° 0 mm 4 mps 726 mmHg 32%
    19:00 +21°C° 0 mm 3 mps 727 mmHg 37%
    20:00 +20°C° 0 mm 3 mps 727 mmHg 41%
    21:00 +19°C° 0 mm 2 mps 728 mmHg 45%
    22:00 +18°C° 0 mm 2 mps 728 mmHg 49%
    23:00 +18°C° 0 mm 1 mps 729 mmHg 53%

    Day after tomorrow, 19 October, Saturday

    Time Temperature Precipitation Wind Pressure Humidity
    00:00 +18°C° 0 mm 1 mps 728 mmHg 55%
    01:00 +16°C° 0 mm 1 mps 728 mmHg 58%
    02:00 +16°C° 0 mm 1 mps 728 mmHg 60%
    03:00 +16°C° 0 mm 1 mps 728 mmHg 61%
    04:00 +15°C° 0 mm 1 mps 728 mmHg 62%
    05:00 +14°C° 0 mm 0 mps 729 mmHg 62%
    06:00 +16°C° 0 mm 1 mps 729 mmHg 60%
    07:00 +18°C° 0 mm 1 mps 729 mmHg 57%
    08:00 +19°C° 0 mm 2 mps 729 mmHg 54%
    09:00 +20°C° 0 mm 2 mps 729 mmHg 48%
    10:00 +21°C° 0 mm 3 mps 729 mmHg 41%
    11:00 +23°C° 0 mm 4 mps 729 mmHg 35%
    12:00 +23°C° 0 mm 4 mps 728 mmHg 33%
    13:00 +25°C° 0 mm 4 mps 728 mmHg 30%
    14:00 +25°C° 0 mm 4 mps 727 mmHg 28%
    15:00 +25°C° 0 mm 4 mps 727 mmHg 30%
    16:00 +23°C° 0 mm 5 mps 726 mmHg 31%
    17:00 +23°C° 0 mm 5 mps 726 mmHg 33%
    18:00 +22°C° 0 mm 4 mps 726 mmHg 35%
    19:00 +21°C° 0 mm 3 mps 726 mmHg 37%
    20:00 +19°C° 0 mm 3 mps 726 mmHg 38%
    21:00 +19°C° 0 mm 3 mps 726 mmHg 41%
    22:00 +19°C° 0 mm 3 mps 726 mmHg 44%
    23:00 +18°C° 0 mm 3 mps 726 mmHg 46%

    20 October, Sunday

    Time Temperature Precipitation Wind Pressure Humidity
    00:00 +17°C° 0 mm 2 mps 726 mmHg 53%
    01:00 +16°C° 0 mm 2 mps 725 mmHg 59%
    02:00 +16°C° 0 mm 2 mps 725 mmHg 66%
    03:00 +15°C° 0.2 mm 2 mps 725 mmHg 68%
    04:00 +15°C° 0.2 mm 2 mps 725 mmHg 71%
    05:00 +15°C° 0.2 mm 2 mps 725 mmHg 73%
    06:00 +15°C° 0.9 mm 1 mps 725 mmHg 75%
    07:00 +15°C° 0.9 mm 1 mps 726 mmHg 77%
    08:00 +14°C° 0.9 mm 0 mps 726 mmHg 80%
    09:00 +15°C° 0.1 mm 1 mps 726 mmHg 77%
    10:00 +16°C° 0.1 mm 1 mps 726 mmHg 74%
    11:00 +18°C° 0.1 mm 1 mps 726 mmHg 71%
    12:00 +19°C° 0 mm 1 mps 726 mmHg 67%
    13:00 +19°C° 0 mm 2 mps 725 mmHg 62%
    14:00 +20°C° 0 mm 2 mps 725 mmHg 57%
    15:00 +20°C° 0 mm 2 mps 725 mmHg 58%
    16:00 +20°C° 0 mm 3 mps 724 mmHg 59%
    17:00 +19°C° 0 mm 3 mps 724 mmHg 60%
    18:00 +18°C° 0 mm 3 mps 724 mmHg 67%
    19:00 +17°C° 0 mm 3 mps 725 mmHg 74%
    20:00 +15°C° 0 mm 2 mps 725 mmHg 81%
    21:00 +15°C° 0 mm 2 mps 725 mmHg 83%
    22:00 +15°C° 0 mm 2 mps 726 mmHg 85%
    23:00 +15°C° 0 mm 1 mps 726 mmHg 86%

    21 October, Monday

    Time Temperature Precipitation Wind Pressure Humidity
    00:00 +14°C° 0 mm 1 mps 726 mmHg 87%
    01:00 +14°C° 0 mm 1 mps 725 mmHg 88%
    02:00 +13°C° 0 mm 1 mps 725 mmHg 89%
    03:00 +13°C° 0 mm 1 mps 725 mmHg 88%
    04:00 +13°C° 0 mm 2 mps 725 mmHg 87%
    05:00 +13°C° 0 mm 2 mps 725 mmHg 86%
    06:00 +15°C° 0 mm 2 mps 726 mmHg 78%
    07:00 +16°C° 0 mm 2 mps 726 mmHg 69%
    08:00 +18°C° 0 mm 3 mps 727 mmHg 61%
    09:00 +20°C° 0 mm 3 mps 727 mmHg 53%
    10:00 +21°C° 0 mm 3 mps 727 mmHg 45%
    11:00 +23°C° 0 mm 4 mps 727 mmHg 38%
    12:00 +25°C° 0 mm 4 mps 727 mmHg 33%
    13:00 +26°C° 0 mm 4 mps 727 mmHg 29%
    14:00 +27°C° 0 mm 5 mps 726 mmHg 25%
    15:00 +26°C° 0 mm 4 mps 726 mmHg 26%
    16:00 +26°C° 0 mm 4 mps 725 mmHg 27%
    17:00 +25°C° 0 mm 4 mps 725 mmHg 29%
    18:00 +22°C° 0 mm 3 mps 725 mmHg 34%
    19:00 +20°C° 0 mm 3 mps 726 mmHg 39%
    20:00 +18°C° 0 mm 2 mps 726 mmHg 44%
    21:00 +18°C° 0 mm 2 mps 726 mmHg 47%
    22:00 +18°C° 0 mm 1 mps 727 mmHg 50%
    23:00 +16°C° 0 mm 1 mps 727 mmHg 52%

    22 October, Tuesday

    Time Temperature Precipitation Wind Pressure Humidity
    00:00 +16°C° 0 mm 1 mps 727 mmHg 54%
    01:00 +16°C° 0 mm 1 mps 727 mmHg 55%
    02:00 +15°C° 0 mm 1 mps 726 mmHg 56%
    03:00 +15°C° 0 mm 1 mps 726 mmHg 57%
    04:00 +15°C° 0 mm 1 mps 726 mmHg 58%
    05:00 +14°C° 0 mm 2 mps 727 mmHg 59%
    06:00 +16°C° 0 mm 2 mps 727 mmHg 54%
    07:00 +18°C° 0 mm 2 mps 727 mmHg 48%
    08:00 +20°C° 0 mm 3 mps 728 mmHg 43%
    09:00 +21°C° 0 mm 4 mps 728 mmHg 38%
    10:00 +23°C° 0 mm 4 mps 727 mmHg 34%
    11:00 +25°C° 0 mm 5 mps 727 mmHg 29%
    12:00 +26°C° 0 mm 5 mps 727 mmHg 29%
    13:00 +27°C° 0 mm 6 mps 726 mmHg 29%
    14:00 +27°C° 0 mm 6 mps 725 mmHg 28%
    15:00 +27°C° 0 mm 6 mps 725 mmHg 29%
    16:00 +26°C° 0 mm 6 mps 724 mmHg 30%
    17:00 +26°C° 0 mm 6 mps 724 mmHg 30%
    18:00 +23°C° 0 mm 5 mps 724 mmHg 33%
    19:00 +21°C° 0 mm 4 mps 724 mmHg 37%
    20:00 +19°C° 0 mm 3 mps 724 mmHg 40%
    21:00 +19°C° 0 mm 3 mps 724 mmHg 42%
    22:00 +18°C° 0 mm 3 mps 724 mmHg 43%
    23:00 +17°C° 0 mm 3 mps 725 mmHg 45%
    Show more